TimeMST,TemperatureF,Dew PointF,Humidity,Sea Level PressureIn,VisibilityMPH,Wind Direction,Wind SpeedMPH,Gust SpeedMPH,PrecipitationIn,Events,Conditions,WindDirDegrees,DateUTC
12:53 AM,39.0,30.0,70,30.06,10.0,NNW,25.3,39.1,N/A,,Clear,340,2012-01-26 07:53:00
1:53 AM,37.0,30.0,76,30.10,10.0,North,16.1,-,N/A,,Clear,350,2012-01-26 08:53:00
2:53 AM,33.1,28.0,82,30.09,10.0,WNW,6.9,-,N/A,,Clear,300,2012-01-26 09:53:00
3:53 AM,30.9,26.1,82,30.10,10.0,WNW,9.2,-,N/A,,Clear,290,2012-01-26 10:53:00
4:53 AM,28.0,23.0,81,30.12,10.0,West,12.7,-,N/A,,Clear,280,2012-01-26 11:53:00
5:53 AM,28.0,21.0,75,30.14,10.0,WNW,9.2,-,N/A,,Clear,290,2012-01-26 12:53:00
6:53 AM,26.6,21.2,80,30.10,10.0,WNW,11.5,-,N/A,,Clear,290,2012-01-26 13:53:00
7:53 AM,30.9,21.0,67,30.14,10.0,NW,13.8,-,N/A,,Clear,310,2012-01-26 14:53:00
8:53 AM,36.0,24.1,62,30.14,10.0,WNW,10.4,-,N/A,,Clear,300,2012-01-26 15:53:00
9:53 AM,44.1,19.9,38,30.13,10.0,NW,11.5,-,N/A,,Clear,320,2012-01-26 16:53:00
10:53 AM,46.9,16.0,29,30.10,10.0,North,13.8,-,N/A,,Clear,350,2012-01-26 17:53:00
11:53 AM,48.0,16.0,28,30.05,10.0,NW,8.1,-,N/A,,Clear,320,2012-01-26 18:53:00
12:53 PM,50.0,16.0,26,30.00,10.0,Calm,Calm,-,N/A,,Clear,0,2012-01-26 19:53:00
1:53 PM,50.0,17.1,27,29.99,10.0,WNW,6.9,-,N/A,,Clear,300,2012-01-26 20:53:00
2:53 PM,51.1,19.0,28,29.97,10.0,NW,3.5,-,N/A,,Clear,310,2012-01-26 21:53:00
3:53 PM,50.0,18.0,28,29.94,10.0,Calm,Calm,-,N/A,,Clear,0,2012-01-26 22:53:00
4:53 PM,42.1,16.0,35,29.94,10.0,SE,4.6,-,N/A,,Clear,130,2012-01-26 23:53:00
5:53 PM,30.0,14.0,51,29.93,10.0,SE,8.1,-,N/A,,Clear,140,2012-01-27 00:53:00
6:53 PM,32.0,16.0,52,29.91,10.0,SE,11.5,-,N/A,,Clear,140,2012-01-27 01:53:00
7:53 PM,28.9,15.1,56,29.88,10.0,SE,5.8,-,N/A,,Clear,130,2012-01-27 02:53:00
8:53 PM,37.9,17.1,43,29.85,10.0,SSE,8.1,-,N/A,,Overcast,160,2012-01-27 03:53:00
9:53 PM,35.1,17.1,48,29.84,10.0,Calm,Calm,-,N/A,,Scattered Clouds,0,2012-01-27 04:53:00
10:53 PM,37.0,18.0,46,29.82,10.0,South,8.1,-,N/A,,Overcast,180,2012-01-27 05:53:00
11:53 PM,36.0,18.0,48,29.78,10.0,SSE,8.1,-,N/A,,Overcast,160,2012-01-27 06:53:00